TimeEDT,TemperatureF,Dew PointF,Humidity,Sea Level PressureIn,VisibilityMPH,Wind Direction,Wind SpeedMPH,Gust SpeedMPH,PrecipitationIn,Events,Conditions,WindDirDegrees,DateUTC
12:17 AM,66.2,62.6,88,29.87,10.0,West,1.2,-,N/A,,Partly Cloudy,280,2013-06-08 04:17:00
12:58 AM,66.6,63.9,91,29.86,10.0,SSE,3.5,-,0.00,,Overcast,150,2013-06-08 04:58:00
1:58 AM,66.7,61.2,82,29.86,10.0,ESE,3.5,-,N/A,,Mostly Cloudy,110,2013-06-08 05:58:00
2:58 AM,65.3,62.1,89,29.85,10.0,ENE,2.3,-,N/A,,Mostly Cloudy,70,2013-06-08 06:58:00
3:58 AM,65.7,61.0,85,29.85,10.0,NE,2.3,-,N/A,,Mostly Cloudy,40,2013-06-08 07:58:00
4:58 AM,63.5,61.2,92,29.88,10.0,North,2.3,-,N/A,,Mostly Cloudy,350,2013-06-08 08:58:00
5:58 AM,63.1,61.3,94,29.89,10.0,Variable,2.3,-,N/A,,Mostly Cloudy,0,2013-06-08 09:58:00
6:58 AM,61.9,61.0,97,29.91,10.0,East,3.5,-,N/A,,Clear,80,2013-06-08 10:58:00
7:58 AM,65.3,61.9,89,29.91,10.0,East,5.8,-,N/A,,Scattered Clouds,90,2013-06-08 11:58:00
8:58 AM,67.8,62.4,83,29.93,10.0,ESE,3.5,-,N/A,,Partly Cloudy,120,2013-06-08 12:58:00
9:58 AM,70.7,63.9,79,29.96,10.0,West,5.8,-,N/A,,Mostly Cloudy,270,2013-06-08 13:58:00
10:10 AM,69.8,64.4,83,29.97,10.0,Variable,2.3,-,N/A,,Overcast,0,2013-06-08 14:10:00
10:50 AM,71.6,64.4,78,29.97,10.0,WNW,2.3,-,N/A,,Mostly Cloudy,290,2013-06-08 14:50:00
10:58 AM,71.6,64.6,78,29.97,10.0,WNW,2.3,-,N/A,,Mostly Cloudy,290,2013-06-08 14:58:00
11:33 AM,73.4,64.4,73,29.97,10.0,Variable,3.5,-,N/A,,Mostly Cloudy,0,2013-06-08 15:33:00
11:38 AM,73.4,64.4,73,29.97,10.0,Variable,2.3,-,N/A,,Scattered Clouds,0,2013-06-08 15:38:00
11:43 AM,73.4,64.4,73,29.98,10.0,WNW,5.8,-,N/A,,Mostly Cloudy,290,2013-06-08 15:43:00
11:58 AM,74.3,63.9,70,29.96,10.0,West,5.8,-,N/A,,Mostly Cloudy,260,2013-06-08 15:58:00
12:03 PM,75.2,64.4,69,29.97,10.0,WSW,6.9,-,N/A,,Scattered Clouds,240,2013-06-08 16:03:00
12:58 PM,75.2,64.2,69,29.96,10.0,SSE,5.8,-,N/A,,Scattered Clouds,160,2013-06-08 16:58:00
1:58 PM,78.8,62.8,58,29.95,10.0,SW,8.1,-,N/A,,Clear,230,2013-06-08 17:58:00
2:58 PM,75.6,62.6,64,29.96,10.0,North,1.2,-,N/A,,Scattered Clouds,350,2013-06-08 18:58:00
3:58 PM,80.6,62.4,54,29.95,10.0,SW,6.9,-,N/A,,Scattered Clouds,230,2013-06-08 19:58:00
4:58 PM,81.3,57.2,44,29.94,10.0,South,8.1,-,N/A,,Scattered Clouds,190,2013-06-08 20:58:00
5:58 PM,81.1,59.9,48,29.94,10.0,WSW,8.1,-,N/A,,Scattered Clouds,240,2013-06-08 21:58:00
6:58 PM,79.7,57.4,46,29.96,10.0,SSW,6.9,-,N/A,,Scattered Clouds,200,2013-06-08 22:58:00
7:58 PM,76.6,60.1,56,29.98,10.0,SSW,6.9,-,N/A,,Scattered Clouds,210,2013-06-08 23:58:00
8:09 PM,75.2,60.8,61,29.98,10.0,SW,4.6,-,N/A,Rain,Light Rain,220,2013-06-09 00:09:00
8:18 PM,75.2,60.8,61,29.98,10.0,SW,4.6,-,N/A,,Clear,220,2013-06-09 00:18:00
8:58 PM,72.3,61.3,68,29.99,10.0,West,2.3,-,0.00,,Mostly Cloudy,260,2013-06-09 00:58:00
9:58 PM,68.4,62.1,80,30.01,10.0,Calm,Calm,-,N/A,,Scattered Clouds,0,2013-06-09 01:58:00
10:58 PM,65.1,61.0,86,30.02,10.0,Calm,Calm,-,N/A,,Clear,0,2013-06-09 02:58:00
11:58 PM,64.0,60.8,89,30.02,10.0,Calm,Calm,-,N/A,,Clear,0,2013-06-09 03:58:00